Погода в Быданове

Россия / Кировская область     58°44′58″N   50°47′52″E
темп.,
°C
ветер,
м/с
пор.,
м/с
влажн.,
%
обл.,
%
осадки,
мм/ч
давл.,
гПа
погр.,
м
12 мая, ср
ср1200:00+10всв2270100 0.0 103011
03:00+9в1173100 0.0 103010
06:00+13всв23610 0.0 1030147
09:00+19в12420 0.0 1030736
12:00+23в12325 0.0 10291235
15:00+24вюв11315 0.0 10281581
18:00+21ююз224499 0.0 102640
21:00+16юв00565 0.0 102711
13 мая, чт
чт1300:00+14юв11625 0.0 102711
03:00+13вюв116729 0.0 102710
06:00+18юв12580 0.0 1027104
09:00+23юв23420 0.0 1026654
12:00+26ю45355 0.0 10252549
15:00+26ю46315 0.0 10242290
18:00+23ююв224946 0.0 102332
21:00+17ю226794 0.0 102329
14 мая, пт
пт1400:00+16ююв2773100 0.0 1023135
03:00+15ю41371100 0.2 1022332
06:00+17ю41176100 0.7 1021458
09:00+21ю48553 0.8 1020814
12:00+24ююз57455 0.0 10191644
15:00+26юз5742100 0.0 10192747
18:00+22ююз495893 0.0 1018717
21:00+18ююз287869 0.1 1019156
15 мая, сб
сб1500:00+16юз228926 0.0 101918
03:00+15ююз119330 0.0 101911
06:00+18ююз237528 0.0 1019199
09:00+23ю3457100 0.0 10181003
12:00+25ююз5747100 0.0 10171377
15:00+27ююз5844100 0.0 10161661
18:00+25ююз5104792 0.0 10151024
21:00+20ююз5165975 0.0 1014654
16 мая, вс
вс1600:00+17ююз4146919 0.0 1015441
03:00+15ююз3117542 0.0 1015268
06:00+18ю4106457 0.0 1014305
09:00+23ююз61144100 0.0 1013784
12:00+27ююз713347 0.0 10132016
15:00+27ююз6153740 0.0 10113082
18:00+23зсз5956100 0.2 1010744
21:00+16ююз211900 4.0 1011262